Wind_Speed
17 17 18 19 21 22 24 26 27 27 27 25 22 21 20 20 20 18 17 16 16 15 14 13 13 13 13 13 13 12 12 14 15 16 18 16 13 12 13 14 13 12 10 7 6 5 4 2 2 3 5 2 0 1 2 2 4 4 2 2 4 2 3 4 5 5 7 10 11 10 9 13 10 9 12 12 14 14 11 10 9 9 9 13 18 27 28 24
18 18 18 19 20 22 24 25 26 27 28 27 26 22 21 21 20 18 17 16 16 15 13 12 12 13 13 12 12 11 11 12 14 19 20 15 13 14 14 15 14 13 10 8 6 5 4 3 4 2 2 1 2 1 2 3 5 2 1 3 3 2 2 1 5 7 8 12 12 8 7 11 10 10 11 7 9 10 10 11 12 17 17 18 23 25 25 25
18 18 18 19 20 22 23 25 26 26 27 28 28 25 22 21 20 19 17 16 15 14 13 12 12 12 12 12 11 10 10 10 14 20 19 15 15 15 15 15 15 14 10 7 6 5 4 3 2 2 2 3 4 4 4 2 3 1 1 3 2 3 3 3 7 9 11 15 14 9 9 12 9 9 7 6 9 7 7 9 11 17 21 23 24 23 24 24
18 18 18 19 20 21 22 24 25 26 26 28 28 27 25 22 21 19 17 15 14 13 12 12 11 11 11 10 9 8 6 7 13 19 16 17 18 16 16 16 15 13 9 7 5 4 2 3 1 1 3 5 4 3 3 3 2 1 0 2 5 6 5 4 5 10 13 15 15 12 12 12 8 7 7 6 6 3 4 7 9 19 26 25 25 24 23 23
19 19 19 19 20 21 22 23 24 25 26 27 26 26 26 24 22 20 17 14 12 11 10 10 9 9 9 9 8 6 2 2 8 13 13 19 21 19 18 16 15 13 9 7 5 3 3 3 2 2 5 5 4 2 4 4 4 4 3 3 5 4 5 5 6 13 15 15 16 12 10 9 7 8 6 3 3 3 2 4 11 22 26 26 25 24 22 22
19 19 19 19 19 21 22 23 23 24 25 25 25 25 26 25 23 20 17 13 10 9 8 8 7 8 8 8 8 8 7 1 4 9 13 20 22 21 20 17 15 13 10 8 5 4 5 4 3 3 4 3 4 3 5 4 4 4 3 4 4 2 7 9 9 15 17 16 14 9 9 9 10 9 7 8 6 5 4 6 15 22 23 23 24 23 22 21
19 19 20 19 19 21 22 23 23 24 24 24 24 24 26 26 23 20 16 11 8 7 7 7 7 8 8 9 9 9 12 6 2 6 12 19 23 22 20 17 15 14 12 9 6 6 8 6 6 6 3 1 2 2 6 9 8 8 5 4 6 8 11 11 14 18 19 18 13 11 11 8 8 7 7 10 8 8 10 12 17 22 21 20 20 21 21 21
19 19 20 20 20 20 22 23 23 24 24 24 23 24 26 25 21 17 14 9 8 8 8 9 9 10 9 10 9 6 12 9 2 4 10 18 23 22 20 19 16 14 12 9 6 6 7 8 8 8 3 1 1 1 5 10 11 8 5 5 9 11 12 16 20 22 21 18 16 15 12 9 10 9 9 9 9 12 14 14 17 21 20 18 18 19 19 20
20 20 20 20 20 20 21 23 23 24 24 23 23 24 25 22 18 14 11 9 8 9 9 9 10 12 12 12 9 4 10 10 4 4 8 16 22 22 21 19 17 16 12 9 7 5 6 7 7 7 4 2 1 2 4 6 5 5 7 9 11 12 13 18 21 21 20 16 17 16 10 9 10 9 9 7 9 15 15 16 18 19 19 17 16 16 17 18
20 20 20 21 20 21 21 22 23 23 23 22 22 24 23 20 15 10 8 8 9 9 7 6 7 10 11 12 9 4 8 11 5 4 7 14 20 22 22 19 18 16 11 10 8 6 8 8 9 8 6 4 3 5 7 5 8 11 15 15 13 12 9 13 18 19 16 12 15 17 11 8 6 4 5 6 10 15 17 17 17 17 17 16 15 14 14 15
21 20 21 21 21 21 21 22 22 22 22 21 22 24 23 18 13 8 6 8 8 8 5 1 4 8 9 12 12 5 7 9 5 5 8 13 17 20 22 19 17 14 10 11 9 8 10 9 9 7 4 4 5 8 10 10 17 20 21 17 12 11 8 10 17 15 10 9 11 14 14 12 8 5 5 8 11 14 17 17 15 15 15 15 14 13 12 12
21 21 21 21 21 21 21 22 22 22 21 20 22 24 23 17 11 7 6 8 7 6 6 5 5 5 7 12 13 6 7 8 6 7 9 14 17 18 18 15 14 11 11 13 10 9 10 9 7 4 5 6 3 5 9 15 19 20 19 14 9 9 8 8 10 7 4 7 7 2 9 10 9 6 6 10 12 13 15 16 14 14 14 14 14 12 11 11
21 21 21 21 22 22 21 21 22 22 21 20 21 24 23 16 11 8 5 6 6 5 5 6 7 5 4 8 9 5 6 8 7 7 9 13 17 18 17 14 13 13 13 14 11 9 9 8 7 6 8 6 3 6 12 14 14 14 11 9 9 6 6 5 2 2 2 4 5 7 2 5 5 6 7 11 13 15 14 13 14 13 14 15 14 13 11 11
21 21 21 21 21 22 21 21 21 21 20 20 21 23 23 15 10 8 4 4 4 3 2 2 4 3 1 4 6 5 6 7 7 8 8 10 15 18 17 14 15 16 15 13 9 8 8 7 7 8 8 7 10 14 13 8 6 9 7 5 7 5 8 7 2 3 4 0 6 6 3 3 3 6 8 12 14 15 14 13 13 12 13 15 15 14 12 12
21 21 21 21 21 22 22 21 21 21 20 19 20 22 22 15 9 7 4 2 3 4 2 2 3 4 3 2 5 5 6 7 7 8 8 9 12 15 16 16 18 18 15 12 8 8 7 7 6 6 6 9 13 11 7 4 3 5 5 5 3 4 8 6 3 3 3 1 6 4 4 3 3 7 9 12 14 14 13 12 13 13 13 14 15 15 13 12
22 21 20 20 21 21 21 20 20 20 19 19 19 21 22 14 8 7 5 3 3 3 3 3 4 4 3 2 6 6 7 7 7 9 9 10 11 16 19 18 19 18 13 10 7 7 7 6 7 5 4 6 7 7 7 6 3 1 2 6 6 5 7 4 4 4 3 2 4 4 4 3 3 8 10 11 13 13 12 12 13 13 13 14 15 14 14 13
22 21 20 20 20 21 21 20 19 19 19 19 18 21 22 14 10 8 6 5 4 4 5 6 5 4 2 3 5 8 10 9 8 10 12 14 14 18 21 18 17 15 12 9 8 7 6 5 5 4 3 2 2 5 7 5 6 3 0 4 5 4 7 5 4 5 2 2 3 4 4 4 4 9 11 11 12 13 11 12 12 13 13 14 15 14 14 14
22 21 20 20 20 20 20 19 19 18 18 17 17 20 20 14 11 8 5 4 4 4 6 5 3 2 2 6 5 7 12 11 10 12 14 16 17 17 18 16 14 13 12 9 7 6 5 3 3 2 1 1 1 4 5 5 7 8 5 5 4 4 7 6 2 4 4 1 1 4 5 5 6 8 9 10 11 12 11 10 11 12 13 14 14 14 14 14
23 22 20 19 19 20 20 19 18 17 17 15 16 19 17 14 10 3 2 5 7 5 4 3 5 1 1 7 5 6 13 13 12 13 15 17 18 17 14 13 14 14 11 7 4 3 3 3 3 3 3 3 4 4 4 5 6 8 7 6 7 7 5 4 2 1 4 5 4 3 5 7 7 7 7 8 8 9 9 9 9 10 12 13 14 14 15 15
23 22 21 19 19 19 19 19 17 16 15 13 15 16 13 13 7 1 7 13 11 7 6 6 8 8 3 6 5 8 14 14 14 15 15 17 17 16 13 13 13 11 7 4 3 3 3 3 3 4 4 5 5 4 5 5 4 6 5 4 6 6 4 4 3 2 1 4 2 0 6 9 7 6 5 6 7 7 8 9 9 10 11 12 12 14 15 15
23 23 21 19 18 19 19 18 17 15 14 12 13 12 9 9 5 4 13 13 8 6 8 8 9 11 6 7 7 10 15 13 13 16 15 15 16 13 10 9 8 6 2 2 4 3 2 3 5 5 3 4 5 6 8 7 6 5 4 4 4 4 4 4 3 2 2 2 2 3 8 8 6 5 3 4 6 7 8 8 8 9 10 11 12 12 14 14
23 23 21 20 18 18 18 18 16 14 11 10 11 9 8 9 8 8 10 8 10 11 10 9 11 12 7 8 8 10 13 11 12 16 17 16 15 11 7 6 5 4 2 2 4 3 2 3 5 4 4 7 6 6 8 7 6 5 3 4 3 4 6 4 2 3 1 2 4 7 8 6 4 3 3 5 6 5 5 6 6 8 9 11 13 12 13 13
22 23 21 20 18 17 17 17 16 12 9 8 10 9 8 12 11 9 6 6 12 13 10 10 11 10 7 7 10 13 14 11 12 16 18 16 13 10 8 5 3 4 3 4 5 3 3 4 3 4 8 8 6 5 7 7 4 3 5 5 5 8 8 5 3 4 4 2 5 9 6 3 3 3 4 6 5 3 5 5 6 9 10 11 13 13 13 12
22 23 21 20 18 16 16 17 15 10 6 7 10 9 9 13 11 8 6 4 7 8 7 7 7 8 7 7 12 15 13 12 14 16 19 17 12 9 8 5 4 5 4 5 6 4 2 3 4 6 6 6 7 7 7 6 3 3 6 5 6 12 8 5 8 6 6 6 7 10 4 2 5 6 7 5 5 5 6 7 8 11 13 12 13 14 13 11
21 22 22 20 18 15 15 15 10 6 6 8 10 8 9 12 10 6 4 3 4 4 4 5 5 7 10 11 14 15 11 11 14 16 18 18 14 9 6 5 4 4 4 5 5 4 1 2 5 6 4 5 7 7 7 6 4 3 6 6 6 12 9 10 12 9 5 3 6 7 3 3 5 8 9 6 7 8 7 9 11 11 14 15 14 15 15 13
20 22 21 19 18 16 13 11 7 8 10 9 7 6 9 12 9 4 2 2 2 2 2 5 5 7 11 12 17 16 8 9 14 17 17 17 14 9 5 4 2 2 5 5 3 1 1 2 3 5 7 7 5 5 6 4 4 3 4 6 8 10 12 14 14 9 4 3 4 3 4 2 4 9 12 9 9 9 7 9 13 13 14 16 17 17 18 17
19 21 21 19 18 17 13 9 9 12 11 6 4 5 9 11 7 3 2 1 2 1 3 5 5 8 9 13 20 14 5 9 14 17 19 17 15 9 6 4 1 2 4 4 3 1 2 3 4 5 7 7 5 4 5 5 4 3 2 8 11 11 13 15 13 6 2 4 5 1 2 2 2 5 8 10 11 11 10 11 13 15 16 18 20 20 21 20
19 20 21 19 17 16 14 11 11 11 7 5 4 6 9 9 3 1 2 1 1 1 3 4 6 8 10 17 20 8 6 13 10 13 20 19 15 8 5 5 3 4 3 2 2 3 4 4 5 7 6 6 3 2 6 5 1 2 2 7 8 7 8 9 7 4 2 3 4 4 2 2 3 1 2 8 11 13 14 14 14 16 18 20 22 23 23 22
18 19 21 19 16 15 14 11 11 8 5 4 4 6 8 5 1 1 1 1 0 1 2 5 7 7 10 15 13 3 7 10 4 10 18 18 15 6 2 5 4 5 2 1 0 2 2 3 3 5 5 5 2 5 4 2 2 5 8 11 10 9 8 5 3 4 3 3 4 7 8 5 3 2 3 5 9 14 16 14 15 18 19 22 25 25 24 23
17 19 21 20 17 15 13 11 8 5 4 4 5 7 5 1 1 1 2 1 0 1 1 4 5 5 9 10 5 1 4 2 5 13 13 11 12 4 3 6 4 4 2 3 1 1 1 1 2 2 2 5 7 7 3 2 8 13 11 12 11 8 6 4 3 3 2 3 2 4 11 7 3 3 6 6 7 11 13 11 12 17 19 22 26 27 25 24
17 18 20 21 17 15 14 9 5 5 5 5 5 4 1 3 1 2 2 0 0 0 0 2 2 3 9 8 3 3 2 1 6 12 8 5 7 3 4 5 3 2 1 1 1 1 2 3 2 0 4 7 9 8 6 4 8 8 6 8 8 5 3 3 2 0 3 4 1 1 7 8 5 5 5 7 6 5 10 11 13 18 21 24 29 30 27 25
17 17 18 20 18 15 14 9 6 7 7 6 4 1 3 2 2 3 1 2 1 1 0 1 1 2 6 4 3 3 3 1 3 6 6 4 5 4 2 3 3 2 1 1 2 1 2 2 1 1 3 5 6 8 6 2 1 3 6 7 4 3 2 2 2 2 4 3 2 1 4 5 6 8 7 8 8 7 9 12 15 20 22 25 30 33 30 26
18 17 18 18 18 15 12 9 8 8 7 5 2 2 3 1 3 3 2 1 0 0 0 1 1 3 5 4 3 3 2 3 3 2 3 2 4 5 0 1 2 2 1 1 2 3 3 1 0 2 2 4 5 6 5 3 4 6 7 5 3 3 3 4 3 1 3 1 3 2 4 3 5 7 8 9 10 11 11 12 15 18 23 30 35 35 31 28
18 17 18 16 15 13 10 9 9 8 8 6 3 3 2 2 2 1 2 2 1 1 0 1 1 3 4 3 2 3 2 2 3 3 3 3 5 5 2 1 1 1 3 2 1 2 3 2 3 3 2 4 5 2 3 5 5 3 1 2 4 4 3 3 3 2 2 1 4 3 3 4 3 0 3 4 3 5 9 12 14 14 20 30 34 34 32 30
17 16 17 15 12 11 10 10 11 10 10 8 3 2 3 3 2 1 1 1 2 2 1 2 2 4 3 1 0 1 2 2 2 3 3 4 5 5 4 4 3 2 3 3 2 1 0 2 1 1 0 4 4 1 2 5 5 1 1 1 2 2 2 1 0 1 1 2 2 2 2 3 3 2 2 3 4 6 8 11 14 15 16 21 24 28 33 33
17 14 13 11 9 10 10 11 13 14 13 9 3 2 3 2 2 2 1 1 2 2 2 1 2 3 3 2 1 1 0 0 2 3 2 2 3 3 3 3 5 6 5 3 2 1 1 1 1 1 2 1 2 4 2 0 3 3 2 3 1 1 3 4 2 2 1 2 2 2 3 3 3 3 2 3 6 6 6 9 14 16 16 19 20 25 32 34
17 13 9 6 7 9 11 12 14 17 16 9 3 3 2 2 2 3 1 2 2 2 1 1 1 2 3 3 3 2 1 1 1 2 3 2 2 4 3 2 5 9 9 5 1 2 3 2 2 0 3 4 3 7 8 5 2 2 4 5 5 1 1 2 1 2 1 4 2 2 4 3 2 2 1 3 6 6 5 8 12 14 16 19 21 25 33 36
19 14 7 5 7 7 10 13 17 20 15 6 2 3 2 2 2 2 2 3 2 1 0 2 1 0 2 3 3 3 3 4 3 2 3 2 2 4 4 3 6 10 11 8 3 2 3 3 2 1 2 5 3 4 6 7 7 2 4 6 4 2 1 1 1 2 2 3 2 2 3 3 3 3 1 3 6 5 5 7 10 14 18 20 21 25 33 37
19 12 4 5 8 5 11 15 20 19 11 3 3 2 1 3 4 5 5 3 1 1 1 2 1 0 1 2 3 3 2 4 5 3 3 3 3 4 3 3 5 7 7 7 5 2 1 3 2 1 0 2 2 3 5 4 6 5 6 4 1 1 1 1 1 1 2 2 1 1 2 3 4 4 3 4 5 5 7 8 10 15 19 20 20 24 33 38
16 7 2 7 6 6 15 18 18 13 6 2 2 1 1 3 4 6 7 4 3 2 2 1 1 1 2 1 1 2 1 2 5 3 2 4 4 4 4 4 3 3 3 4 3 2 2 2 3 2 1 3 4 2 5 5 5 5 6 4 1 2 1 1 2 1 1 2 1 2 3 3 2 3 5 6 4 5 9 9 10 15 19 19 20 25 33 39
11 3 2 7 3 13 17 13 9 4 2 2 1 1 1 3 3 6 8 5 5 4 3 2 2 1 2 1 1 2 2 2 4 2 2 5 5 4 4 4 5 6 5 4 3 3 2 2 3 4 4 5 2 1 2 2 2 4 6 5 5 5 3 2 2 1 1 1 1 1 4 4 1 3 5 5 2 5 10 11 11 15 19 21 25 30 34 38
7 1 1 4 3 14 13 5 1 1 1 2 1 3 3 3 3 4 5 3 4 4 2 2 2 2 2 2 1 2 3 2 3 2 3 4 4 4 3 3 6 8 6 3 3 2 2 2 3 2 2 2 1 3 2 3 1 1 1 2 4 4 4 4 4 3 3 1 1 1 3 3 1 2 4 4 3 5 9 11 12 14 19 24 29 30 32 36
9 4 2 2 3 13 10 1 0 1 1 1 1 4 4 3 2 2 3 2 2 2 1 2 3 3 3 2 1 3 3 2 3 3 3 3 3 4 5 5 6 5 3 2 2 3 2 1 2 1 1 1 1 1 1 0 2 2 1 1 3 2 1 2 1 2 4 3 3 2 4 3 2 2 3 4 6 7 9 12 13 14 18 25 29 30 31 34
13 8 2 2 2 11 8 1 2 2 1 0 1 2 3 3 3 3 3 2 2 1 1 2 3 3 1 0 2 2 2 2 4 2 1 2 2 2 5 7 7 7 5 3 4 8 5 1 2 3 2 2 2 2 2 2 3 3 2 2 2 3 6 4 3 2 2 3 3 3 6 4 1 1 2 3 4 7 9 12 14 14 16 22 27 30 32 33
11 6 1 4 2 9 5 2 1 1 1 1 0 1 2 3 2 3 4 4 3 2 2 2 2 1 0 1 2 1 1 0 1 2 1 1 2 1 1 5 10 9 6 3 6 11 6 1 3 5 5 5 6 5 3 4 4 2 3 5 3 5 7 4 3 2 4 3 3 4 6 4 1 1 3 3 3 6 8 10 13 16 18 20 25 30 31 33
6 2 2 5 6 7 6 7 3 0 1 1 1 1 2 2 2 5 4 2 4 5 4 3 2 1 1 1 2 2 1 1 1 1 2 1 2 1 2 2 8 8 5 6 11 10 3 0 3 5 6 6 5 3 1 2 6 5 6 8 6 5 5 4 3 3 4 4 4 5 3 4 5 4 5 4 5 7 8 8 12 16 18 20 23 27 31 33
4 2 2 3 5 6 7 8 7 3 0 0 0 1 2 2 3 5 2 1 5 7 3 2 1 0 1 1 2 2 1 1 1 1 2 1 0 1 1 1 5 6 6 8 10 7 2 2 4 3 3 2 1 2 0 1 5 6 8 10 7 5 6 6 4 3 5 5 5 5 3 4 8 6 6 7 6 6 7 9 12 15 18 21 21 24 28 30
4 2 3 3 2 1 2 5 7 5 2 2 1 1 2 3 3 3 2 3 5 7 4 1 2 5 5 2 1 3 2 1 0 1 1 1 0 0 1 2 2 4 6 5 4 3 2 3 3 2 2 1 2 1 1 1 3 4 7 11 9 8 10 10 6 4 6 5 6 1 6 7 9 6 7 9 6 6 10 13 15 17 19 22 22 24 26 28
5 3 3 5 2 0 3 5 5 2 4 4 2 3 3 4 4 3 3 3 3 7 6 1 2 9 8 4 2 2 3 1 1 2 1 1 1 1 2 2 1 2 3 3 2 1 1 2 3 3 4 4 2 0 0 2 4 5 5 7 8 8 9 7 4 5 7 7 6 1 4 10 10 7 10 15 13 10 13 16 17 17 19 21 23 25 27 29
7 5 5 5 2 2 5 5 2 1 3 3 2 3 3 3 5 4 3 2 3 6 6 4 8 11 7 3 0 2 2 3 2 1 1 0 1 1 1 2 2 2 2 1 1 1 0 2 2 2 3 3 2 2 3 3 4 5 4 4 4 5 4 3 2 3 5 6 5 3 5 9 8 7 12 20 19 14 14 15 15 16 18 21 24 26 27 30
8 8 8 5 2 4 5 3 2 1 2 3 2 2 2 3 5 6 3 2 2 4 6 7 9 8 4 2 5 4 4 5 6 7 6 4 4 3 2 1 2 2 2 1 0 1 1 2 1 1 3 2 2 3 5 5 5 3 2 5 7 6 4 3 3 4 5 4 3 4 5 7 5 3 7 14 13 10 12 13 13 14 17 21 25 27 28 31
9 9 8 4 1 5 5 2 1 1 1 2 2 2 2 2 4 6 2 1 0 3 5 8 7 5 2 3 6 6 10 12 13 14 12 9 10 11 9 6 5 2 1 2 1 1 2 4 3 2 3 2 2 2 5 5 2 2 3 7 10 8 4 3 2 4 7 5 4 5 6 5 3 1 4 7 6 6 10 10 10 13 18 22 25 28 30 31
Wind_Direction
344 344 343 341 340 340 341 342 343 343 342 340 338 333 326 322 319 313 304 293 285 280 277 277 277 276 276 275 271 264 257 248 243 239 225 212 210 209 200 200 203 200 195 184 169 163 171 167 191 280 309 290 68 237 215 218 191 176 215 115 105 140 151 167 176 148 124 136 150 164 153 132 132 125 120 110 99 102 90 74 82 97 116 126 137 148 147 146
343 344 343 341 339 339 340 341 343 342 340 339 337 334 330 327 323 316 305 295 287 282 279 275 274 274 274 274 270 266 257 249 248 238 218 203 205 201 197 201 202 201 192 178 172 179 193 171 179 285 332 141 67 92 129 150 164 165 246 108 106 171 99 112 157 138 131 144 147 148 138 124 123 132 141 129 112 113 94 86 92 98 107 121 133 142 145 147
342 343 343 341 339 338 339 340 341 340 339 337 336 335 334 332 328 319 308 297 289 284 280 275 274 272 272 270 267 264 260 261 255 239 217 199 201 197 196 200 199 198 188 174 172 186 200 161 153 349 70 85 53 98 97 114 165 168 161 111 116 160 98 107 152 150 148 145 136 122 109 104 112 135 145 140 137 137 118 119 116 117 123 130 137 141 145 149
342 342 343 343 339 337 338 339 340 339 338 337 336 334 334 334 330 323 311 299 289 284 280 275 272 268 268 264 260 259 266 278 254 239 218 198 197 195 197 196 193 194 186 180 184 187 185 126 105 15 76 43 27 107 53 27 126 99 334 98 133 157 112 105 147 137 136 132 121 116 108 101 110 124 124 136 138 128 144 153 146 141 139 138 142 144 146 150
343 342 342 343 340 337 336 337 338 338 337 335 335 333 332 333 332 326 315 303 288 281 277 272 268 262 260 252 250 238 224 304 238 229 211 196 194 193 195 192 190 193 189 189 189 168 133 111 123 55 65 32 17 81 17 15 98 76 5 72 116 161 113 99 119 122 123 116 109 109 104 106 109 95 90 90 49 46 121 174 152 146 144 143 146 146 148 152
343 341 341 342 340 336 335 336 336 337 336 335 334 332 329 330 330 327 317 307 290 281 273 265 255 247 243 235 237 216 206 200 168 193 194 194 194 191 192 190 191 193 194 193 175 119 102 121 144 68 59 30 24 56 31 33 121 104 54 55 51 96 118 119 118 119 120 107 99 97 100 111 109 83 53 54 48 53 90 134 142 143 142 143 145 148 152 156
342 341 340 341 340 337 334 334 335 336 336 335 334 330 327 326 326 324 317 307 291 282 267 256 242 231 223 218 222 213 222 235 133 173 185 192 195 192 190 190 191 193 197 196 167 108 96 112 113 84 70 66 45 53 55 64 89 106 97 59 61 87 107 120 117 114 110 100 97 103 102 94 99 94 53 59 71 88 105 126 137 138 139 142 146 151 156 159
342 341 339 340 340 337 334 334 335 336 336 337 335 330 328 325 322 321 315 306 296 291 276 261 246 229 217 211 211 213 228 228 185 183 187 192 193 190 188 186 192 196 199 192 160 121 96 96 103 94 80 76 55 39 78 76 71 79 103 89 87 93 102 115 113 110 106 102 107 102 85 73 88 92 64 61 91 110 119 129 135 138 139 142 149 154 157 159
341 341 339 339 339 338 335 334 335 336 337 338 336 334 332 328 324 320 312 309 307 306 292 269 248 228 220 213 207 219 223 212 193 187 193 194 189 187 186 186 194 198 197 180 154 131 97 95 109 108 110 113 78 36 53 76 69 67 97 98 100 103 112 117 110 109 109 108 112 101 81 89 100 86 65 72 111 123 129 132 138 143 142 145 152 158 159 160
339 340 339 338 338 338 336 335 335 336 338 339 338 340 339 335 333 326 317 319 319 321 308 269 237 216 212 203 194 199 201 200 203 181 184 188 186 185 183 187 197 198 189 167 147 119 102 104 116 117 111 83 73 52 31 71 114 106 98 92 99 105 110 115 108 110 111 107 112 106 95 88 94 89 74 102 126 132 135 136 144 146 147 151 153 161 166 166
339 339 338 337 336 338 338 336 336 336 338 339 338 342 343 341 342 338 334 338 337 345 350 310 191 192 193 189 187 181 180 188 184 153 156 171 181 185 184 189 197 192 175 159 151 125 104 101 115 121 112 94 98 67 53 107 123 116 107 91 85 93 94 104 109 114 109 116 122 107 95 72 57 78 101 129 140 139 138 140 148 151 155 160 159 163 171 174
338 339 338 336 335 337 339 336 336 336 338 338 336 340 343 342 345 347 346 350 360 19 40 74 108 150 171 186 189 177 164 169 154 143 146 156 164 176 182 183 181 176 160 156 152 129 107 98 103 112 122 125 125 65 86 122 125 122 116 102 92 91 103 108 108 116 110 145 175 114 85 59 41 81 121 141 147 144 139 143 151 157 164 168 170 170 173 177
338 338 337 337 335 335 339 337 336 336 336 337 335 338 342 340 340 343 348 353 3 32 60 78 77 100 150 188 191 174 156 154 140 140 147 153 157 167 175 170 163 161 156 158 150 125 109 100 96 109 124 115 85 103 117 120 118 121 112 111 125 111 135 156 120 159 191 159 257 290 82 60 50 107 142 152 153 151 144 148 155 163 171 176 180 180 181 182
336 338 338 337 335 334 338 337 335 335 335 336 335 337 341 338 331 332 335 345 345 5 44 70 43 46 211 199 186 182 160 145 135 137 143 154 159 164 169 165 159 157 157 160 147 117 103 104 105 104 105 103 110 112 111 100 100 119 108 114 142 153 164 179 203 174 195 216 318 296 134 101 107 126 155 164 163 161 153 153 159 167 176 183 188 189 191 192
333 337 338 337 335 334 336 337 334 334 334 335 335 337 340 335 324 322 306 314 319 320 316 271 336 346 311 217 180 184 166 152 142 136 134 146 161 164 160 159 157 156 159 157 138 111 101 106 110 98 90 114 125 119 106 91 81 120 132 142 166 185 166 183 205 186 223 302 338 321 133 116 138 145 161 170 172 170 161 158 163 172 182 189 195 198 201 203
331 335 337 337 336 333 335 336 334 332 333 335 335 336 338 331 318 311 285 276 289 285 272 268 299 321 321 187 183 187 174 169 156 143 137 139 156 160 153 153 154 155 155 148 132 111 105 105 101 93 98 121 130 124 117 120 134 192 175 162 178 187 168 183 188 177 261 269 348 359 140 140 137 152 160 172 179 177 168 163 167 176 185 195 201 205 210 213
329 332 336 337 336 333 334 335 333 331 332 334 334 337 337 328 315 303 265 258 275 259 261 274 273 272 255 187 190 187 177 177 166 150 143 143 151 154 150 150 152 155 152 138 130 123 116 112 110 97 83 94 137 133 134 147 162 177 237 165 177 185 173 176 167 146 134 283 345 42 118 133 120 146 159 171 180 183 178 171 173 179 187 200 207 211 218 224
327 329 333 336 335 333 332 333 333 330 332 332 333 337 336 329 318 294 244 254 280 268 279 270 212 225 217 191 189 179 178 180 171 156 148 148 150 150 148 148 151 154 148 132 126 134 132 102 96 121 89 81 169 159 160 168 170 177 182 178 181 197 193 185 163 165 158 113 109 109 112 125 133 148 159 167 180 190 187 175 176 180 187 199 207 214 222 229
324 327 330 333 334 332 331 332 332 329 330 329 331 337 337 339 334 265 213 300 281 272 282 208 185 261 207 186 192 177 175 173 170 164 155 153 150 148 149 148 155 156 151 150 139 114 121 108 108 164 183 173 174 174 160 155 170 173 168 177 182 183 193 182 106 121 170 135 120 138 130 140 154 159 163 164 175 191 185 173 177 182 188 197 206 214 221 229
322 324 327 330 332 332 331 330 331 329 326 325 331 338 343 352 359 174 325 311 280 263 262 234 233 267 254 176 176 166 164 165 172 170 161 159 154 151 147 144 150 152 147 161 142 84 109 170 194 194 196 182 169 141 110 113 133 141 148 167 181 176 150 139 113 46 182 145 91 116 136 142 157 160 169 167 168 190 190 182 182 182 187 195 204 211 219 228
320 321 324 327 330 331 329 328 329 325 321 321 330 345 2 3 359 319 324 315 287 274 271 257 245 256 237 164 157 155 156 160 172 171 163 161 161 159 150 139 147 148 124 97 100 93 130 190 210 215 203 152 134 127 115 114 125 135 172 164 162 180 137 123 124 59 287 204 121 145 139 137 152 156 171 178 181 202 203 196 191 183 188 197 204 211 220 229
317 318 321 324 327 329 327 325 326 319 315 317 323 342 7 357 341 327 326 305 292 294 282 262 244 251 235 186 182 166 158 156 163 170 169 165 168 174 158 138 154 153 120 108 115 117 181 210 217 201 139 108 103 131 125 115 135 142 174 178 172 156 126 116 104 67 327 230 153 157 148 137 149 161 189 195 198 213 208 207 205 190 191 197 202 208 216 225
316 316 319 320 323 326 325 324 322 311 302 311 314 318 341 348 339 325 317 287 293 296 280 258 247 246 229 200 189 173 167 160 157 169 174 171 171 177 165 138 131 136 138 166 161 155 175 196 201 144 137 125 103 128 125 112 137 159 167 178 175 165 158 161 149 79 52 60 151 157 146 134 153 178 207 205 204 217 213 218 221 208 203 201 203 207 211 216
315 314 316 317 319 323 325 321 318 307 287 301 308 297 314 337 337 319 306 281 288 296 275 246 235 221 192 176 174 171 168 162 162 169 175 177 170 166 164 137 116 139 164 175 173 181 178 138 112 106 131 139 117 131 148 139 145 195 194 194 169 172 176 141 139 125 78 71 133 144 131 184 193 202 207 201 205 215 211 215 222 215 211 208 205 208 208 209
315 312 314 315 315 319 325 319 313 309 295 301 304 287 301 328 333 314 304 295 271 276 253 212 212 200 173 165 172 171 161 164 174 174 178 183 173 154 152 149 149 170 170 158 168 205 232 142 137 118 125 146 132 151 180 173 156 193 213 220 188 169 146 117 137 147 125 126 159 159 189 206 190 211 213 194 203 211 202 212 221 212 210 212 208 207 208 207
315 312 312 313 313 315 322 317 303 305 305 304 301 286 306 324 327 302 299 331 267 244 184 176 173 170 169 167 168 167 158 172 183 180 182 189 179 158 143 148 168 181 160 156 166 219 68 125 158 147 143 151 145 157 186 193 161 155 191 185 171 157 139 138 153 162 165 163 160 190 248 219 178 213 215 203 208 213 202 215 221 210 207 211 210 209 209 209
315 312 309 312 314 313 317 312 300 305 304 300 295 294 314 323 322 290 272 267 244 190 142 158 150 155 168 163 161 163 159 163 173 182 187 190 185 177 167 167 170 153 156 164 156 140 159 142 146 152 140 148 164 161 185 210 169 123 141 152 153 154 151 156 161 161 137 110 113 155 279 273 227 212 206 200 209 220 217 220 220 212 210 211 212 212 212 214
316 311 307 309 311 309 311 308 306 307 295 285 291 298 317 324 324 263 254 240 225 111 134 155 147 151 157 159 163 161 143 152 160 183 185 185 184 186 193 197 170 132 150 196 159 137 177 181 164 162 144 156 183 123 153 173 84 60 91 114 121 124 131 146 149 118 95 139 169 191 189 248 240 169 158 197 212 226 225 221 217 211 210 212 214 214 215 218
316 310 305 304 304 302 300 302 308 303 279 279 287 297 310 308 267 186 221 251 249 97 133 145 146 152 149 157 171 159 142 156 153 170 176 181 186 192 186 178 148 121 107 310 167 118 173 222 192 169 156 157 91 54 137 164 61 127 112 88 82 74 73 82 109 97 106 208 220 187 185 222 246 181 153 182 213 227 225 219 213 210 209 211 215 215 216 218
315 310 305 300 300 297 290 295 302 282 268 286 293 301 303 241 190 219 191 240 297 69 142 156 153 160 149 152 186 190 150 155 125 148 160 176 186 185 107 139 127 120 86 18 51 66 17 225 193 163 122 122 99 66 22 45 127 138 116 94 89 77 70 61 52 74 146 226 257 178 190 217 270 213 182 184 210 222 218 208 201 205 207 209 215 216 216 216
314 310 304 298 296 289 284 290 284 257 265 285 301 304 217 136 136 232 190 8 262 87 105 165 144 156 156 157 182 169 153 38 128 146 150 157 171 152 119 140 116 113 96 38 111 358 21 136 165 87 109 119 109 80 44 78 133 139 122 121 108 80 92 87 63 105 225 222 358 24 196 205 242 245 201 194 202 208 211 207 198 200 202 206 213 216 217 215
313 308 301 295 290 279 276 275 256 253 258 270 294 230 154 159 247 226 254 338 206 182 205 177 169 155 158 156 161 159 150 132 139 150 147 148 169 169 175 192 167 151 197 182 149 111 121 139 329 9 132 151 126 98 85 83 140 137 136 143 127 102 157 167 158 205 235 225 45 29 191 195 241 257 253 228 214 208 214 217 210 202 198 201 209 215 216 213
315 309 300 291 284 275 269 261 246 241 242 246 244 148 133 228 233 214 260 304 76 153 3 108 111 131 152 161 163 164 148 144 171 171 132 129 181 178 95 45 147 156 169 172 162 153 143 125 273 126 149 208 182 141 146 184 196 166 153 156 148 143 177 188 170 240 255 221 70 117 186 221 254 259 264 248 224 214 216 223 223 210 201 204 209 213 213 209
318 313 301 290 282 271 256 242 230 221 220 214 183 143 144 207 227 231 244 258 312 290 14 49 101 129 150 174 175 177 183 162 159 158 136 143 178 187 179 156 166 79 99 138 188 163 168 181 173 156 153 187 191 179 133 144 159 170 144 167 168 165 199 210 193 215 225 125 88 115 180 222 222 200 288 277 269 236 230 231 232 221 209 209 208 209 210 206
322 316 304 294 279 259 239 223 208 201 200 187 153 160 192 209 242 248 228 266 297 283 355 28 140 148 156 194 273 198 207 199 154 150 151 158 181 190 181 182 195 159 132 172 192 98 241 217 145 7 52 164 175 155 68 116 134 122 2 196 192 175 160 130 55 136 116 106 130 165 228 242 247 290 290 282 294 270 247 234 229 225 211 204 202 203 207 205
323 319 306 291 268 246 228 209 195 191 184 167 154 219 213 235 239 190 193 302 304 313 333 357 141 159 178 183 185 165 147 121 153 172 165 163 196 187 181 189 181 182 179 172 168 151 193 199 56 34 60 63 168 135 82 343 146 138 179 175 146 36 112 121 107 67 65 231 174 183 250 265 281 269 225 242 257 246 236 225 220 218 205 197 196 200 205 204
327 326 309 277 266 248 218 196 185 183 177 164 182 227 221 254 219 195 279 306 289 316 325 217 179 175 178 177 180 161 132 126 147 199 173 167 214 180 191 220 176 187 195 185 205 228 199 156 67 153 108 82 118 118 84 23 17 159 182 152 135 93 57 106 149 117 182 241 195 177 248 268 289 265 176 223 242 231 219 213 210 209 202 199 198 200 205 205
330 333 314 277 287 259 208 190 181 175 167 160 222 235 220 231 221 229 284 307 280 267 241 227 239 194 178 184 179 150 163 172 163 181 167 175 244 169 167 191 180 193 198 189 206 230 199 185 87 10 130 122 155 148 104 45 18 48 136 134 144 194 157 118 179 178 203 251 219 182 249 264 227 224 238 233 235 222 205 200 201 204 203 203 199 199 205 206
331 335 328 315 308 245 189 178 173 167 157 163 223 222 225 248 263 262 266 289 268 198 243 247 239 286 195 183 163 142 170 179 159 163 178 187 212 177 177 206 188 194 190 180 190 155 160 230 185 86 37 161 203 229 181 112 50 67 119 126 325 329 130 143 115 199 226 230 232 212 242 237 212 213 234 239 232 200 189 195 206 207 207 207 200 198 204 206
330 333 357 346 335 173 162 160 161 162 159 183 208 188 285 276 278 278 275 274 247 233 269 253 206 215 198 200 213 156 143 164 156 164 193 182 192 195 201 206 156 131 142 155 176 138 114 236 195 119 65 204 190 207 204 167 125 138 159 162 148 100 100 170 117 53 271 190 189 245 254 245 196 188 215 233 232 192 190 195 205 209 209 209 205 204 207 207
331 339 35 359 41 151 151 152 156 158 155 160 214 198 252 284 290 296 291 274 247 248 258 230 220 244 188 182 225 168 134 141 156 166 189 188 209 218 201 194 161 137 131 142 171 178 164 184 172 152 169 194 187 17 283 244 161 165 184 184 164 137 140 179 175 166 284 237 185 231 270 269 179 176 214 228 227 201 203 201 203 208 208 209 212 213 213 211
340 332 97 16 138 163 160 153 126 25 161 171 221 218 254 286 276 297 304 280 244 244 254 241 223 228 214 188 164 159 145 141 157 171 191 199 219 214 167 143 155 156 149 147 165 164 137 130 146 155 184 202 349 2 305 280 302 97 136 179 158 146 161 193 212 190 159 160 96 104 278 272 136 160 227 243 261 243 224 213 208 209 208 211 215 216 216 216
335 311 172 37 184 177 175 183 120 172 222 169 231 233 248 276 264 290 315 292 254 235 241 246 214 212 229 215 169 182 175 166 177 182 193 202 213 210 191 159 149 163 170 147 140 146 140 118 126 105 23 65 35 41 61 28 186 172 67 124 165 162 136 158 185 158 158 176 160 164 256 258 125 137 240 259 261 253 240 226 218 213 212 214 216 216 217 217
327 308 222 28 217 186 186 254 190 189 225 164 2 258 253 261 248 272 290 272 266 250 250 260 226 214 238 170 157 187 192 190 196 196 187 188 189 199 201 190 180 183 195 206 173 170 179 168 132 146 135 135 160 164 160 199 217 207 127 134 164 118 106 105 100 123 202 198 166 203 252 259 101 97 266 265 253 250 244 232 225 221 218 215 215 215 216 216
329 304 247 22 70 176 172 42 136 176 136 147 22 22 338 272 247 322 312 280 289 287 265 283 263 215 116 94 137 117 45 240 201 188 176 197 205 200 251 216 201 195 210 230 172 164 169 165 158 169 175 183 191 195 201 184 175 166 146 161 169 140 140 139 114 166 224 194 159 215 248 269 11 338 279 261 244 255 248 231 228 228 225 220 217 216 215 214
348 333 343 19 68 111 90 55 42 12 108 111 136 71 15 295 295 340 320 274 344 332 275 273 293 227 168 143 144 111 57 358 29 140 178 186 193 203 341 225 196 194 197 176 158 148 127 113 174 184 196 201 190 182 256 139 149 165 166 163 165 153 145 131 125 196 194 149 185 221 245 295 286 270 276 261 234 245 245 229 225 227 226 223 221 218 215 213
8 17 342 356 47 68 67 53 32 14 37 81 85 43 5 321 308 334 354 65 1 349 298 245 346 324 222 189 167 134 104 65 63 128 177 201 220 250 327 141 165 162 148 151 154 142 105 173 175 170 196 237 89 118 177 163 151 157 157 159 164 156 152 165 190 192 137 144 240 231 167 257 267 260 269 267 250 245 247 237 233 232 228 223 221 218 214 213
25 46 29 9 14 47 47 21 7 9 44 53 75 53 9 7 355 348 349 331 350 6 355 208 72 17 353 322 200 164 144 151 169 156 174 178 30 116 133 126 134 141 144 148 154 151 140 160 166 152 139 103 53 92 208 179 132 135 152 160 163 165 178 195 198 155 154 206 268 200 155 226 256 261 268 270 263 254 257 257 252 245 233 223 217 214 211 210
32 44 23 12 29 153 333 341 331 1 46 34 49 58 26 20 21 353 309 311 348 15 9 333 3 354 341 320 273 180 155 165 195 186 184 172 148 143 164 172 102 100 138 139 105 141 159 129 152 167 128 107 91 68 131 123 117 118 138 155 165 174 190 205 194 162 192 240 284 272 210 249 258 256 265 272 276 274 271 268 259 246 231 220 214 210 209 208
39 36 360 347 14 350 334 348 353 61 44 18 34 48 20 21 18 347 291 284 341 10 14 353 333 332 325 318 37 119 70 2 294 262 325 43 170 162 182 198 161 111 103 112 96 297 241 139 169 179 130 104 79 81 86 78 98 120 125 139 161 167 181 211 216 178 206 258 284 266 261 268 258 236 251 267 275 275 266 258 247 236 226 217 213 210 208 207
37 30 11 352 6 358 347 359 15 69 57 19 23 29 7 27 10 335 274 240 350 34 24 344 327 321 319 43 69 68 21 332 287 281 290 282 278 286 288 271 215 167 109 99 124 344 72 119 149 193 171 145 51 72 93 78 75 101 161 196 187 175 176 197 199 184 195 218 234 234 259 272 265 225 245 262 266 258 253 247 237 232 226 218 215 212 210 207
29 24 14 358 1 10 2 350 356 54 98 20 5 345 329 347 346 329 290 216 126 70 19 344 330 317 316 65 55 357 323 305 286 282 282 272 277 282 273 264 271 275 152 138 113 32 124 141 143 187 187 148 62 89 110 105 127 189 234 216 195 185 185 174 174 206 209 203 206 233 255 272 291 295 265 264 253 247 257 254 243 237 231 225 221 217 215 211
Height
1533 1531 1530 1529 1528 1526 1524 1522 1521 1519 1517 1515 1514 1512 1511 1509 1507 1506 1505 1504 1504 1503 1503 1504 1503 1503 1503 1503 1503 1503 1503 1503 1503 1503 1503 1504 1505 1506 1507 1508 1509 1510 1511 1511 1512 1513 1513 1514 1514 1514 1514 1513 1514 1513 1513 1513 1513 1514 1517 1522 1527 1528 1526 1522 1522 1521 1521 1524 1525 1526 1526 1528 1533 1535 1537 1538 1540 1542 1543 1545 1545 1544 1545 1547 1548 1551 1554 1557
1533 1531 1529 1528 1527 1525 1524 1522 1520 1518 1516 1514 1513 1511 1510 1508 1506 1505 1503 1502 1502 1502 1502 1502 1502 1502 1502 1502 1502 1502 1502 1502 1502 1500 1500 1503 1504 1505 1506 1507 1508 1509 1510 1511 1512 1512 1513 1513 1514 1514 1513 1512 1512 1512 1512 1512 1512 1514 1517 1522 1526 1524 1521 1517 1517 1517 1518 1522 1524 1525 1528 1528 1532 1534 1536 1538 1540 1541 1543 1546 1546 1546 1547 1549 1550 1553 1556 1558
1532 1531 1529 1528 1526 1525 1523 1521 1519 1517 1515 1513 1511 1510 1508 1507 1505 1503 1502 1501 1500 1500 1500 1500 1500 1500 1500 1500 1500 1501 1501 1501 1500 1497 1499 1502 1503 1503 1505 1506 1507 1508 1509 1511 1511 1512 1512 1512 1513 1513 1512 1511 1512 1512 1511 1511 1512 1512 1516 1523 1524 1519 1517 1517 1517 1517 1518 1520 1522 1526 1529 1530 1533 1534 1535 1537 1539 1540 1542 1545 1547 1547 1549 1550 1552 1554 1556 1559
1532 1530 1528 1527 1526 1524 1522 1521 1519 1517 1514 1512 1510 1508 1507 1505 1504 1502 1500 1499 1498 1498 1498 1499 1499 1499 1499 1499 1500 1500 1500 1500 1497 1495 1498 1500 1501 1502 1504 1505 1506 1508 1509 1510 1511 1511 1512 1511 1512 1512 1511 1511 1511 1511 1510 1511 1512 1512 1515 1520 1519 1516 1518 1519 1518 1519 1520 1521 1523 1527 1529 1531 1534 1534 1536 1537 1539 1541 1542 1544 1545 1546 1548 1549 1552 1554 1557 1559
1531 1529 1528 1526 1525 1523 1522 1520 1518 1516 1514 1512 1509 1507 1505 1504 1502 1500 1499 1497 1497 1497 1497 1497 1497 1497 1498 1498 1499 1499 1500 1502 1496 1494 1497 1498 1500 1502 1503 1505 1506 1507 1509 1510 1510 1511 1511 1511 1511 1511 1511 1511 1511 1511 1511 1511 1511 1514 1517 1517 1516 1516 1519 1521 1520 1521 1522 1523 1525 1527 1530 1533 1534 1535 1538 1538 1541 1542 1542 1544 1545 1546 1547 1549 1551 1554 1557 1559
1530 1529 1527 1526 1524 1523 1521 1519 1517 1515 1513 1511 1508 1506 1504 1502 1501 1499 1497 1496 1495 1495 1495 1495 1496 1496 1496 1497 1498 1498 1499 1499 1494 1493 1496 1497 1499 1500 1502 1504 1505 1507 1508 1509 1510 1510 1510 1510 1511 1511 1511 1512 1512 1512 1512 1512 1511 1516 1520 1517 1517 1518 1519 1522 1522 1523 1523 1524 1527 1529 1531 1533 1535 1538 1540 1540 1542 1543 1542 1544 1545 1547 1549 1551 1552 1554 1556 1558
1530 1528 1527 1525 1523 1522 1520 1518 1516 1514 1512 1510 1508 1505 1503 1501 1499 1497 1496 1495 1494 1494 1494 1494 1495 1495 1495 1495 1496 1497 1497 1495 1493 1494 1495 1496 1498 1499 1502 1504 1505 1507 1508 1509 1510 1510 1510 1509 1510 1510 1512 1513 1513 1513 1512 1512 1510 1515 1521 1520 1520 1520 1520 1523 1523 1524 1525 1526 1529 1531 1533 1534 1536 1539 1541 1542 1543 1543 1544 1545 1547 1549 1551 1553 1554 1555 1557 1558
1529 1527 1526 1524 1522 1521 1519 1517 1515 1513 1511 1509 1507 1504 1502 1499 1497 1496 1494 1494 1493 1493 1493 1493 1493 1493 1494 1495 1495 1496 1495 1494 1493 1494 1494 1495 1497 1499 1501 1503 1505 1506 1507 1509 1510 1510 1509 1509 1510 1510 1512 1514 1512 1513 1512 1512 1514 1516 1521 1521 1521 1523 1523 1524 1525 1526 1527 1528 1531 1532 1535 1537 1538 1540 1542 1544 1545 1545 1546 1547 1548 1550 1552 1554 1556 1556 1557 1559
1528 1526 1525 1523 1521 1519 1518 1516 1514 1512 1510 1508 1506 1503 1501 1498 1496 1494 1493 1493 1493 1492 1492 1491 1491 1492 1493 1493 1495 1495 1494 1493 1493 1493 1494 1495 1496 1498 1501 1503 1504 1506 1507 1509 1509 1510 1509 1509 1510 1510 1512 1513 1512 1512 1510 1513 1520 1520 1520 1522 1523 1525 1526 1526 1526 1527 1529 1531 1532 1534 1537 1539 1539 1541 1544 1547 1547 1547 1548 1549 1550 1551 1553 1555 1557 1558 1558 1559
1527 1525 1524 1522 1520 1518 1517 1515 1513 1511 1509 1507 1505 1503 1500 1497 1495 1493 1493 1492 1492 1491 1490 1489 1489 1490 1491 1492 1494 1495 1492 1492 1494 1493 1493 1494 1496 1498 1500 1502 1504 1505 1507 1509 1509 1509 1509 1509 1510 1510 1512 1512 1512 1513 1511 1514 1520 1520 1520 1523 1525 1527 1528 1527 1527 1529 1531 1533 1533 1534 1539 1541 1540 1542 1548 1550 1549 1549 1549 1550 1552 1553 1554 1556 1557 1559 1559 1560
1526 1524 1522 1521 1519 1517 1515 1514 1512 1510 1508 1506 1504 1502 1499 1497 1495 1493 1493 1492 1491 1490 1489 1489 1489 1489 1490 1491 1493 1493 1491 1492 1493 1493 1493 1494 1496 1498 1500 1502 1503 1506 1507 1508 1509 1509 1509 1510 1510 1511 1512 1512 1513 1513 1513 1515 1519 1519 1520 1525 1529 1529 1530 1530 1529 1531 1533 1535 1535 1534 1536 1541 1541 1544 1549 1550 1550 1551 1551 1551 1553 1554 1555 1556 1557 1559 1560 1561
1525 1523 1521 1520 1518 1516 1514 1513 1511 1509 1507 1505 1503 1501 1499 1497 1495 1494 1493 1492 1491 1490 1490 1489 1489 1489 1490 1491 1492 1491 1491 1492 1493 1493 1494 1494 1496 1498 1500 1502 1503 1505 1507 1508 1509 1509 1509 1510 1510 1511 1512 1512 1513 1515 1517 1518 1519 1520 1520 1528 1534 1532 1534 1534 1531 1534 1534 1535 1536 1533 1538 1545 1546 1548 1550 1550 1551 1552 1552 1553 1554 1555 1556 1557 1558 1558 1559 1561
1524 1522 1520 1519 1517 1515 1513 1511 1510 1508 1506 1505 1503 1501 1498 1496 1495 1494 1493 1492 1492 1491 1491 1490 1490 1490 1491 1491 1491 1491 1492 1492 1492 1493 1494 1495 1496 1497 1499 1501 1503 1505 1507 1508 1509 1509 1509 1510 1510 1511 1511 1512 1514 1516 1519 1519 1521 1523 1523 1528 1537 1541 1541 1536 1533 1535 1534 1535 1535 1535 1547 1554 1551 1550 1550 1551 1552 1552 1553 1554 1555 1556 1556 1557 1558 1558 1559 1560
1523 1521 1519 1517 1516 1514 1512 1511 1509 1507 1505 1504 1502 1500 1498 1496 1495 1494 1493 1492 1492 1491 1491 1491 1491 1491 1491 1491 1491 1491 1492 1492 1493 1493 1494 1495 1496 1497 1499 1501 1503 1505 1507 1508 1508 1509 1509 1510 1510 1511 1511 1512 1514 1517 1520 1522 1523 1526 1529 1531 1538 1546 1546 1537 1534 1537 1536 1536 1533 1534 1550 1556 1551 1550 1551 1551 1552 1551 1553 1554 1555 1556 1557 1558 1558 1559 1559 1560
1521 1520 1518 1516 1515 1513 1511 1510 1508 1506 1505 1503 1501 1499 1497 1495 1494 1493 1493 1492 1492 1492 1491 1491 1491 1491 1490 1490 1490 1491 1491 1492 1493 1493 1494 1495 1496 1498 1499 1501 1503 1505 1507 1508 1508 1509 1509 1510 1510 1511 1512 1513 1514 1519 1524 1527 1528 1528 1536 1544 1543 1544 1545 1538 1535 1536 1537 1537 1532 1535 1550 1554 1550 1550 1550 1551 1552 1552 1553 1554 1555 1556 1557 1557 1558 1558 1560 1560
1520 1519 1517 1515 1514 1512 1510 1509 1507 1505 1504 1502 1500 1499 1496 1495 1493 1493 1492 1492 1492 1491 1491 1491 1491 1491 1490 1489 1490 1490 1491 1492 1492 1494 1495 1495 1497 1498 1499 1501 1503 1505 1507 1508 1508 1509 1509 1509 1510 1511 1512 1514 1515 1520 1527 1534 1537 1533 1536 1546 1546 1544 1546 1543 1537 1535 1537 1537 1534 1535 1547 1553 1549 1548 1550 1551 1552 1552 1553 1554 1555 1556 1557 1557 1558 1558 1559 1560
1519 1517 1516 1514 1513 1511 1509 1508 1506 1504 1503 1501 1500 1498 1495 1493 1492 1491 1491 1491 1491 1491 1491 1491 1490 1491 1490 1489 1490 1490 1490 1492 1492 1494 1494 1495 1497 1498 1499 1501 1503 1505 1506 1507 1508 1508 1509 1510 1511 1513 1513 1515 1516 1518 1530 1542 1543 1539 1537 1542 1544 1543 1546 1546 1541 1537 1536 1539 1539 1537 1543 1550 1548 1547 1550 1551 1552 1553 1553 1554 1555 1555 1557 1557 1558 1559 1559 1560
1517 1516 1514 1513 1512 1510 1508 1507 1505 1503 1502 1501 1499 1497 1495 1492 1491 1490 1490 1490 1490 1490 1490 1489 1490 1492 1492 1489 1489 1489 1490 1492 1493 1494 1495 1495 1497 1498 1500 1501 1502 1505 1505 1507 1508 1508 1510 1510 1511 1515 1516 1519 1518 1519 1531 1539 1537 1538 1539 1541 1544 1544 1544 1545 1543 1539 1537 1540 1543 1542 1546 1550 1548 1547 1549 1550 1551 1553 1553 1554 1555 1555 1556 1557 1558 1558 1559 1559
1516 1514 1513 1512 1510 1509 1507 1506 1504 1503 1501 1500 1499 1496 1494 1491 1489 1488 1489 1489 1489 1488 1489 1488 1487 1491 1492 1488 1487 1489 1489 1491 1492 1493 1495 1495 1497 1499 1500 1501 1503 1504 1504 1507 1508 1508 1509 1511 1515 1520 1522 1521 1519 1518 1524 1526 1525 1530 1534 1536 1540 1543 1544 1543 1540 1538 1537 1542 1546 1545 1547 1550 1549 1549 1549 1550 1551 1552 1553 1554 1554 1555 1556 1557 1557 1558 1559 1559
1514 1513 1511 1510 1509 1508 1506 1505 1503 1502 1500 1499 1498 1496 1494 1491 1489 1488 1488 1487 1486 1485 1486 1486 1485 1486 1487 1486 1487 1488 1488 1490 1492 1493 1495 1495 1497 1498 1499 1501 1502 1503 1504 1506 1509 1508 1509 1516 1520 1520 1519 1518 1516 1517 1518 1520 1522 1526 1530 1534 1535 1538 1543 1542 1540 1538 1535 1542 1549 1547 1547 1550 1550 1550 1549 1550 1551 1552 1553 1553 1554 1555 1555 1556 1557 1557 1558 1558
1513 1512 1510 1509 1507 1506 1505 1504 1502 1501 1500 1499 1498 1497 1495 1494 1493 1491 1488 1484 1483 1483 1483 1484 1484 1484 1484 1485 1486 1487 1488 1489 1491 1492 1494 1495 1496 1498 1499 1500 1501 1505 1507 1506 1509 1509 1511 1520 1520 1515 1514 1514 1515 1517 1518 1522 1524 1526 1529 1533 1537 1539 1542 1541 1540 1539 1536 1541 1551 1549 1549 1553 1551 1550 1550 1550 1551 1551 1552 1553 1553 1554 1555 1556 1556 1557 1557 1558
1511 1510 1508 1507 1506 1505 1504 1502 1501 1500 1499 1498 1498 1497 1496 1495 1495 1493 1491 1486 1481 1481 1482 1481 1482 1482 1482 1484 1485 1486 1487 1488 1490 1492 1493 1494 1496 1497 1498 1499 1502 1506 1507 1507 1510 1515 1518 1520 1514 1510 1511 1513 1517 1518 1519 1523 1526 1529 1530 1533 1537 1538 1541 1543 1540 1539 1537 1541 1550 1550 1551 1555 1552 1550 1551 1550 1551 1551 1552 1553 1553 1554 1554 1555 1555 1556 1557 1557
1510 1508 1507 1505 1504 1504 1502 1501 1500 1499 1498 1498 1497 1497 1496 1495 1493 1492 1492 1490 1483 1478 1478 1479 1479 1480 1481 1482 1483 1484 1485 1486 1488 1490 1492 1494 1494 1496 1497 1499 1502 1506 1508 1508 1512 1520 1522 1516 1509 1508 1510 1513 1518 1519 1520 1523 1526 1529 1530 1532 1536 1535 1538 1543 1543 1541 1538 1539 1547 1549 1551 1555 1554 1552 1551 1551 1551 1551 1552 1553 1553 1553 1554 1554 1555 1555 1556 1556
1507 1506 1505 1503 1503 1502 1501 1500 1499 1498 1497 1497 1497 1496 1495 1495 1493 1492 1492 1490 1485 1478 1476 1477 1477 1478 1479 1480 1482 1483 1485 1486 1487 1488 1491 1493 1494 1496 1497 1498 1503 1507 1508 1508 1511 1516 1516 1510 1506 1508 1511 1512 1518 1521 1520 1523 1528 1530 1528 1528 1530 1531 1531 1534 1540 1541 1540 1542 1544 1547 1557 1559 1554 1555 1553 1550 1551 1551 1552 1553 1553 1553 1553 1554 1554 1554 1555 1556
1505 1505 1503 1502 1501 1500 1500 1499 1497 1497 1496 1496 1496 1495 1495 1494 1493 1493 1491 1492 1489 1479 1475 1476 1476 1476 1477 1479 1481 1482 1483 1485 1486 1488 1490 1491 1493 1495 1496 1497 1502 1507 1508 1508 1511 1513 1511 1507 1507 1510 1513 1513 1516 1520 1519 1519 1526 1530 1527 1524 1525 1527 1529 1532 1537 1539 1545 1553 1546 1546 1563 1563 1553 1554 1553 1550 1551 1551 1551 1552 1552 1552 1552 1553 1553 1553 1554 1555
1504 1503 1502 1501 1499 1498 1499 1497 1496 1497 1495 1495 1495 1494 1495 1494 1493 1493 1492 1495 1492 1478 1474 1476 1476 1476 1476 1478 1480 1481 1486 1487 1485 1488 1490 1491 1493 1494 1497 1498 1500 1504 1506 1507 1509 1510 1508 1507 1507 1510 1513 1514 1516 1518 1517 1516 1522 1528 1524 1521 1523 1525 1529 1533 1535 1538 1547 1553 1546 1544 1557 1561 1555 1553 1550 1548 1551 1549 1549 1550 1549 1550 1551 1551 1552 1552 1553 1554
1502 1501 1500 1499 1497 1496 1497 1496 1496 1496 1494 1495 1494 1493 1494 1492 1493 1492 1493 1503 1496 1476 1473 1476 1475 1475 1475 1476 1478 1482 1490 1488 1485 1488 1488 1490 1493 1492 1497 1500 1500 1502 1501 1504 1511 1510 1507 1508 1510 1510 1511 1514 1516 1516 1516 1513 1518 1525 1521 1520 1524 1525 1529 1532 1532 1538 1544 1547 1549 1548 1551 1558 1557 1551 1546 1547 1550 1550 1548 1547 1546 1547 1548 1548 1549 1550 1551 1552
1500 1499 1498 1498 1497 1495 1495 1495 1495 1494 1494 1494 1492 1493 1493 1492 1494 1491 1498 1511 1496 1472 1472 1474 1472 1474 1474 1476 1478 1479 1483 1483 1485 1489 1486 1489 1492 1491 1495 1497 1497 1499 1498 1503 1512 1510 1505 1507 1509 1508 1510 1514 1512 1511 1512 1512 1518 1525 1523 1521 1525 1526 1529 1531 1533 1541 1544 1546 1555 1554 1551 1559 1558 1548 1546 1547 1549 1551 1546 1543 1542 1543 1544 1545 1546 1548 1549 1550
1499 1497 1496 1496 1495 1494 1493 1493 1493 1493 1493 1492 1492 1493 1491 1492 1493 1491 1502 1509 1487 1469 1472 1472 1472 1474 1473 1476 1478 1478 1479 1480 1483 1486 1485 1489 1491 1490 1493 1494 1494 1498 1498 1499 1505 1505 1502 1503 1502 1503 1508 1510 1510 1510 1510 1511 1519 1524 1523 1523 1527 1531 1533 1535 1539 1543 1547 1550 1555 1552 1550 1558 1556 1545 1547 1551 1550 1546 1539 1536 1537 1538 1541 1542 1543 1545 1546 1548
1496 1495 1494 1493 1493 1493 1492 1492 1492 1492 1492 1491 1492 1491 1491 1493 1493 1500 1513 1503 1480 1473 1473 1471 1473 1474 1474 1478 1480 1478 1479 1480 1480 1482 1486 1488 1489 1490 1491 1492 1493 1496 1499 1499 1501 1502 1500 1500 1500 1501 1504 1506 1509 1513 1513 1513 1515 1518 1522 1526 1532 1536 1536 1541 1543 1544 1554 1557 1552 1549 1547 1553 1557 1544 1539 1544 1539 1532 1530 1532 1533 1535 1537 1538 1539 1542 1543 1545
1494 1493 1492 1490 1491 1490 1489 1490 1491 1491 1491 1491 1491 1490 1491 1493 1495 1509 1512 1489 1476 1477 1473 1472 1475 1472 1474 1478 1481 1480 1479 1480 1479 1482 1487 1488 1490 1491 1492 1495 1496 1499 1504 1504 1503 1503 1501 1502 1502 1500 1502 1504 1507 1513 1516 1515 1514 1516 1521 1526 1536 1544 1543 1548 1549 1550 1561 1562 1553 1552 1547 1553 1560 1543 1528 1529 1525 1523 1526 1527 1528 1529 1532 1534 1536 1538 1540 1542
1492 1491 1490 1488 1488 1487 1487 1489 1489 1489 1490 1489 1490 1490 1491 1498 1504 1506 1497 1481 1480 1480 1473 1474 1475 1473 1475 1477 1480 1481 1480 1482 1481 1481 1485 1488 1491 1492 1493 1496 1498 1505 1513 1511 1508 1507 1505 1504 1503 1501 1501 1502 1505 1515 1522 1521 1517 1518 1522 1527 1540 1554 1557 1559 1561 1561 1562 1557 1554 1555 1551 1555 1555 1535 1522 1523 1521 1521 1522 1521 1522 1524 1527 1530 1532 1534 1537 1539
1489 1487 1487 1486 1485 1485 1485 1486 1486 1488 1488 1488 1491 1488 1492 1507 1509 1496 1486 1483 1482 1477 1471 1474 1473 1473 1476 1478 1481 1480 1480 1483 1482 1482 1485 1487 1492 1493 1492 1493 1492 1500 1510 1512 1511 1511 1511 1509 1503 1503 1504 1500 1501 1512 1523 1524 1520 1520 1523 1527 1538 1554 1565 1569 1570 1570 1563 1554 1553 1554 1553 1555 1547 1528 1519 1518 1517 1518 1519 1520 1521 1522 1523 1525 1528 1531 1534 1536
1486 1484 1483 1482 1482 1482 1482 1483 1484 1485 1487 1488 1489 1490 1498 1510 1502 1487 1485 1483 1477 1473 1472 1474 1474 1475 1476 1478 1480 1478 1480 1484 1482 1483 1486 1488 1494 1496 1494 1494 1492 1494 1502 1511 1513 1512 1518 1518 1507 1504 1505 1500 1500 1505 1509 1513 1517 1521 1519 1521 1529 1538 1549 1557 1559 1559 1557 1554 1557 1557 1554 1550 1539 1526 1518 1514 1515 1517 1518 1519 1520 1520 1522 1523 1525 1529 1531 1534
1484 1482 1481 1479 1479 1479 1479 1480 1481 1483 1486 1486 1488 1494 1502 1503 1493 1486 1485 1479 1475 1475 1473 1473 1474 1477 1479 1479 1478 1475 1478 1483 1482 1483 1487 1489 1492 1493 1492 1492 1492 1493 1498 1509 1514 1513 1520 1518 1504 1501 1501 1499 1502 1502 1501 1506 1517 1523 1519 1520 1526 1524 1529 1546 1553 1550 1551 1554 1557 1556 1548 1536 1527 1520 1515 1516 1517 1516 1517 1518 1518 1519 1520 1522 1525 1527 1529 1531
1481 1480 1478 1477 1477 1477 1477 1478 1479 1481 1483 1484 1490 1497 1496 1489 1485 1484 1480 1475 1476 1475 1475 1476 1475 1479 1483 1480 1479 1477 1475 1478 1482 1484 1487 1489 1489 1490 1489 1487 1487 1489 1493 1502 1510 1513 1518 1514 1502 1501 1502 1499 1501 1502 1501 1506 1515 1521 1522 1522 1524 1519 1522 1542 1556 1555 1553 1554 1553 1551 1542 1530 1525 1520 1515 1517 1516 1514 1516 1515 1515 1517 1518 1520 1522 1523 1526 1529
1479 1477 1476 1475 1475 1474 1475 1475 1476 1479 1481 1483 1490 1493 1488 1481 1478 1478 1475 1473 1474 1473 1476 1480 1478 1479 1483 1481 1480 1479 1476 1478 1482 1484 1488 1490 1488 1486 1486 1484 1483 1484 1484 1491 1501 1503 1508 1511 1504 1503 1505 1502 1501 1501 1502 1503 1506 1514 1520 1518 1519 1522 1523 1531 1546 1556 1558 1555 1551 1550 1544 1537 1535 1527 1517 1517 1516 1514 1514 1513 1513 1516 1516 1517 1519 1520 1524 1526
1476 1475 1474 1474 1473 1472 1473 1474 1475 1477 1479 1484 1489 1488 1484 1480 1476 1474 1474 1473 1473 1473 1476 1480 1477 1477 1480 1480 1479 1478 1477 1481 1483 1485 1488 1491 1487 1481 1481 1482 1480 1481 1479 1483 1494 1496 1499 1509 1509 1504 1505 1505 1500 1502 1506 1506 1503 1506 1510 1510 1515 1525 1529 1532 1542 1550 1554 1556 1552 1549 1548 1542 1535 1526 1516 1514 1514 1511 1512 1512 1512 1512 1513 1514 1515 1518 1521 1524
1475 1474 1473 1473 1472 1470 1471 1472 1474 1475 1478 1485 1488 1485 1482 1479 1474 1473 1474 1473 1473 1474 1476 1476 1475 1476 1477 1477 1477 1477 1477 1480 1483 1485 1487 1489 1487 1480 1477 1479 1478 1480 1479 1480 1489 1493 1496 1508 1512 1505 1503 1505 1502 1504 1510 1511 1509 1506 1507 1510 1513 1519 1526 1531 1536 1536 1541 1553 1554 1548 1546 1535 1523 1518 1513 1510 1509 1508 1510 1511 1509 1509 1509 1511 1513 1515 1518 1521
1475 1473 1473 1472 1471 1469 1470 1472 1474 1475 1478 1483 1485 1483 1480 1478 1473 1472 1472 1472 1472 1472 1474 1474 1474 1476 1476 1475 1475 1475 1477 1478 1480 1484 1484 1485 1485 1480 1475 1475 1477 1479 1481 1481 1486 1491 1497 1506 1511 1508 1505 1507 1507 1505 1505 1506 1509 1511 1513 1516 1517 1521 1526 1528 1533 1535 1536 1546 1552 1551 1544 1527 1512 1510 1508 1505 1505 1504 1506 1507 1506 1506 1507 1509 1511 1512 1514 1517
1475 1473 1473 1472 1471 1471 1472 1473 1474 1474 1477 1480 1481 1480 1479 1476 1473 1471 1471 1471 1471 1469 1470 1471 1472 1473 1473 1474 1474 1472 1475 1478 1478 1481 1482 1481 1481 1480 1474 1471 1474 1477 1481 1485 1486 1488 1495 1502 1508 1510 1508 1507 1505 1503 1501 1501 1502 1504 1507 1510 1511 1517 1524 1528 1538 1542 1537 1539 1544 1547 1543 1522 1505 1504 1503 1502 1502 1501 1502 1502 1503 1504 1505 1507 1509 1510 1513 1515
1475 1473 1473 1472 1472 1472 1472 1473 1475 1475 1475 1477 1478 1477 1477 1475 1473 1472 1470 1470 1470 1468 1468 1469 1470 1471 1470 1470 1471 1471 1473 1477 1478 1479 1479 1478 1477 1475 1472 1470 1472 1473 1476 1484 1485 1483 1488 1496 1504 1509 1508 1505 1504 1503 1503 1502 1501 1501 1503 1504 1505 1509 1513 1521 1532 1536 1537 1541 1540 1543 1543 1521 1501 1501 1502 1501 1502 1501 1501 1501 1501 1502 1502 1504 1506 1508 1511 1513
1474 1473 1472 1472 1472 1472 1473 1475 1476 1476 1475 1475 1475 1474 1475 1474 1473 1472 1471 1470 1470 1469 1469 1469 1467 1468 1467 1467 1469 1470 1470 1474 1477 1476 1475 1476 1473 1470 1469 1469 1471 1472 1474 1480 1483 1482 1486 1494 1504 1510 1508 1504 1502 1501 1501 1502 1502 1503 1504 1505 1506 1507 1507 1512 1520 1523 1531 1540 1538 1542 1544 1519 1499 1501 1502 1501 1502 1501 1500 1500 1499 1501 1501 1502 1504 1506 1509 1511
1474 1472 1471 1471 1471 1471 1473 1475 1476 1475 1475 1474 1474 1474 1474 1473 1473 1472 1471 1471 1470 1469 1470 1468 1466 1466 1465 1465 1467 1468 1468 1472 1476 1473 1473 1475 1471 1467 1467 1468 1469 1471 1472 1475 1476 1478 1487 1496 1503 1512 1518 1516 1513 1511 1508 1506 1504 1503 1505 1508 1507 1508 1509 1513 1518 1520 1527 1533 1530 1534 1536 1514 1499 1502 1501 1500 1501 1499 1499 1499 1498 1499 1499 1500 1502 1503 1505 1508
1474 1472 1471 1471 1470 1470 1472 1474 1474 1474 1475 1476 1475 1475 1475 1474 1472 1472 1472 1471 1469 1469 1469 1467 1464 1464 1465 1465 1466 1467 1467 1469 1472 1472 1472 1473 1470 1467 1467 1467 1468 1468 1468 1470 1469 1471 1484 1494 1496 1505 1518 1523 1521 1517 1508 1502 1503 1503 1506 1508 1508 1508 1509 1511 1518 1523 1527 1532 1530 1526 1522 1507 1499 1501 1499 1498 1500 1498 1497 1497 1497 1497 1497 1498 1500 1500 1502 1505
1476 1474 1472 1471 1470 1471 1473 1474 1474 1475 1475 1476 1476 1477 1478 1476 1473 1472 1472 1471 1470 1469 1468 1466 1464 1464 1465 1466 1467 1469 1468 1468 1470 1471 1471 1471 1469 1467 1466 1466 1467 1467 1467 1469 1469 1472 1484 1492 1491 1493 1499 1502 1501 1500 1495 1493 1498 1502 1504 1506 1507 1508 1508 1509 1517 1521 1521 1530 1531 1519 1513 1510 1503 1501 1500 1498 1498 1497 1495 1494 1495 1495 1495 1497 1498 1499 1500 1502
1478 1478 1478 1476 1474 1473 1474 1475 1476 1476 1476 1477 1478 1479 1480 1479 1475 1472 1471 1471 1471 1469 1467 1466 1465 1466 1467 1467 1467 1469 1470 1469 1469 1470 1470 1470 1468 1467 1466 1466 1467 1467 1467 1468 1469 1474 1483 1489 1491 1490 1491 1492 1492 1494 1494 1493 1495 1498 1500 1504 1506 1508 1508 1508 1513 1513 1514 1524 1525 1512 1512 1515 1506 1500 1499 1496 1495 1494 1492 1492 1492 1492 1493 1495 1496 1497 1499 1501
1480 1481 1481 1481 1479 1478 1477 1477 1478 1478 1477 1477 1479 1481 1481 1480 1479 1477 1474 1472 1471 1471 1469 1467 1466 1468 1468 1468 1468 1468 1470 1471 1471 1470 1471 1471 1469 1468 1467 1467 1466 1466 1467 1468 1469 1471 1478 1486 1491 1491 1493 1496 1497 1497 1496 1494 1495 1496 1497 1500 1503 1506 1508 1506 1508 1510 1511 1515 1514 1509 1512 1512 1502 1498 1497 1493 1491 1492 1490 1490 1490 1490 1491 1492 1493 1495 1496 1498
1481 1482 1482 1481 1481 1481 1480 1480 1479 1479 1478 1478 1480 1482 1483 1482 1482 1481 1479 1476 1473 1472 1472 1471 1470 1470 1469 1469 1467 1467 1470 1472 1471 1470 1470 1470 1470 1470 1470 1469 1468 1466 1466 1469 1470 1470 1475 1486 1492 1492 1493 1496 1498 1498 1496 1494 1496 1498 1498 1499 1501 1503 1505 1504 1506 1509 1509 1508 1507 1509 1513 1508 1498 1496 1494 1489 1489 1490 1489 1488 1488 1487 1488 1489 1490 1492 1492 1494
1484 1484 1484 1482 1482 1482 1481 1480 1479 1479 1479 1480 1481 1483 1484 1483 1483 1482 1480 1479 1477 1475 1474 1475 1474 1472 1470 1469 1468 1469 1472 1473 1472 1471 1470 1471 1470 1470 1470 1469 1467 1467 1466 1469 1472 1470 1474 1487 1492 1489 1490 1496 1497 1496 1496 1495 1495 1498 1501 1502 1503 1504 1507 1507 1508 1510 1511 1510 1507 1508 1513 1506 1494 1491 1491 1488 1488 1488 1487 1486 1485 1484 1485 1486 1487 1488 1489 1491
1486 1486 1486 1485 1483 1483 1482 1481 1481 1480 1481 1483 1484 1485 1484 1483 1484 1483 1480 1478 1478 1478 1477 1477 1476 1473 1471 1469 1469 1471 1474 1474 1474 1471 1471 1472 1470 1469 1469 1467 1466 1467 1468 1470 1472 1470 1474 1487 1491 1487 1490 1497 1497 1498 1499 1496 1497 1500 1502 1502 1503 1504 1505 1505 1505 1505 1506 1507 1506 1508 1509 1500 1489 1487 1488 1485 1485 1485 1484 1482 1482 1482 1483 1484 1484 1485 1486 1488
1488 1487 1487 1486 1485 1484 1484 1483 1482 1481 1484 1487 1486 1486 1485 1484 1483 1483 1480 1478 1477 1478 1478 1477 1475 1473 1471 1470 1471 1473 1473 1472 1472 1470 1470 1471 1469 1468 1468 1467 1466 1467 1468 1469 1472 1473 1475 1482 1487 1487 1491 1497 1501 1501 1498 1497 1504 1507 1499 1493 1495 1499 1500 1501 1502 1501 1499 1499 1502 1503 1499 1491 1486 1487 1487 1484 1482 1482 1482 1481 1481 1481 1481 1482 1482 1482 1484 1486